DECAYED

STARLINK-4721, 53796 (Decayed)

Orbit data source: Space-Track

STARLINK-4721, 53796 was a payload satellite owned by SpaceX/Seattle (US) in LEO that was launched on Sun, 11 Sep 2022 UTC via an FALCON 9 launch vehicle from the Air Force Eastern Test Range (AFETR). Payload-class satellites include a variety of spacecraft equipped with specific instruments for various scientific and technological missions. These include communications satellites like Starlink; space stations such as the ISS; scientific satellites like the Hubble; Earth observation satellites from companies like Planet Labs, Umbra, and HawkEye 360; GPS; miniature CubeSats for education and research; and military/defense satellites.

Not visible in the next 10 days
Identifier
53796, 2022-111Z
Orbit
Decayed
Country
Flag of USUS
Related business
Manufacturer
SpaceX/Seattle
Mission
Decayed Commercial Communications
Bus & Motor
STARLINK, Unknown motor
Mass
305 kg wet, ~290 kg dry
Launch date (UTC)
2022-09-11 (3 years ago)
Launch vehicle
FALCON 9
Launch site
Air Force Eastern Test Range (AFETR)
Object type
Payload
Rocket body
Debris
Shape & HBR
Box + 1 Pan, 10.1 m
Radar Cross Section
13.562 m², Large (>1 m²)

Expand to show TLE details & history
Last TLE update: 5 months ago

TLE from 5 months ago
0 STARLINK-4721
1 53796U 22111Z   25243.43321689  .09776989  12316-4  13019-2 0  9997
2 53796  53.1538 294.2953 0006830 348.3815  11.7072 16.34646809166581
Epoch: 2025-08-31T10:23Z
TLE epoch observation values (Epoch: 2025-08-31T10:23:49.939Z)
Latitude
-0.00001°
Longitude
158.48398°
Altitude
176.635 km
Speed
7.804 km/s
True Right ascension
19h 37m 10s
True Declination
0° 00' 00"
Sunlit
Object was in full shadow at epoch
Visualization orbit readout
Latitude
Unknown
Longitude
Unknown
Altitude
Unknown
Speed
Unknown
Apparent Right ascension
Unknown
Apparent Declination
Unknown
Sunlit
N/A
Visualization observer readout
Local Sidereal Time
20:17:34
Azimuth
Unknown
Elevation
Unknown
Doppler factor
Unknown
Orbital elements
Apogee altitude
184.83 km
Perigee altitude
175.871 km
Semi-major axis
6,558.487 km
Eccentricity
0.00068
Inclination
53.1538°
RAAN
294.2953°
Arg. of periapsis
348.3815°
True anomaly
11.72309°
Mean anomaly
11.7072°
Eccentric anomaly
11.71515°
Mean motion
4.08637 °/min
Orbital period
88.1 mins
BSTAR
0.0013019
Loading maneuver chart data...
Computing Atmospheric mass density...
Loading historical data...
Loading historical data...
Loading historical data...
Loading historical data...
Loading historical data...
Loading historical data...
Loading historical data...

Documentation

Showing up to 5 results
|